This is the latest recevied weather packets stored in our database for station/object VK4TOM-13. If no packets are shown the sender has not sent any weather packets the latest 10 day(s).
| Time | Temp. | Humidity | Pressure | Rain* | Wind** | Luminosity | Snow |
|---|---|---|---|---|---|---|---|
| 1777675271 | 23.89° C | 70% | 1018.9 hPa | 0 mm | - | - | - |
| 1777674670 | 23.33° C | 70% | 1018.8 hPa | 0 mm | - | - | - |
| 1777674070 | 22.78° C | 70% | 1019 hPa | 0 mm | - | - | - |
| 1777673467 | 22.22° C | 70% | 1019 hPa | 0 mm | - | - | - |
| 1777672866 | 21.67° C | 70% | 1019 hPa | 0 mm | - | - | - |
| 1777672265 | 21.11° C | 70% | 1018.9 hPa | 0 mm | - | - | - |
| 1777671664 | 20.56° C | 70% | 1018.9 hPa | 0 mm | - | - | - |
| 1777671063 | 20° C | 70% | 1018.8 hPa | 0 mm | - | - | - |
| 1777670462 | 20° C | 70% | 1018.8 hPa | 0 mm | - | - | - |
| 1777669861 | 19.44° C | 70% | 1018.7 hPa | 0 mm | - | - | - |
| 1777669260 | 19.44° C | 70% | 1018.7 hPa | 0 mm | - | - | - |
| 1777668659 | 19.44° C | 70% | 1018.6 hPa | 0 mm | - | - | - |
| 1777668058 | 19.44° C | 70% | 1018.4 hPa | 0 mm | - | - | - |
| 1777667457 | 19.44° C | 70% | 1018.4 hPa | 0 mm | - | - | - |
| 1777666856 | 19.44° C | 70% | 1018.4 hPa | 0 mm | - | - | - |
| 1777666254 | 19.44° C | 70% | 1018.4 hPa | 0 mm | - | - | - |
| 1777665653 | 19.44° C | 70% | 1018.3 hPa | 0 mm | - | - | - |
| 1777665053 | 19.44° C | 70% | 1018 hPa | 0 mm | - | - | - |
| 1777664452 | 19.44° C | 70% | 1018.1 hPa | 0 mm | - | - | - |
| 1777663850 | 19.44° C | 70% | 1018.2 hPa | 0 mm | - | - | - |
| 1777663249 | 19.44° C | 70% | 1018.1 hPa | 0 mm | - | - | - |
| 1777662648 | 19.44° C | 70% | 1017.8 hPa | 0 mm | - | - | - |
| 1777662047 | 19.44° C | 70% | 1017.8 hPa | 0 mm | - | - | - |
| 1777661446 | 19.44° C | 70% | 1017.9 hPa | 0 mm | - | - | - |
| 1777660845 | 20° C | 70% | 1017.8 hPa | 0 mm | - | - | - |
* Rain since midnight (hover to see other rain measurements)
** Current wind speed in m/s (hover to see current wind gust speed)